This is the latest recevied weather packets stored in our database for station/object KD4PMP. If no packets are shown the sender has not sent any weather packets the latest 10 day(s).
| Time | Temp. | Humidity | Pressure | Rain* | Wind** | Luminosity | Snow |
|---|---|---|---|---|---|---|---|
| 1777428026 | 18.89° C | 92% | 1012.7 hPa | 0 mm | - | - | - |
| 1777427396 | 19.44° C | 92% | 1012.1 hPa | 0 mm | - | - | - |
| 1777426826 | 19.44° C | 91% | 1010.8 hPa | 0 mm | - | - | - |
| 1777426195 | 19.44° C | 92% | 1010.3 hPa | 0 mm | - | - | - |
| 1777425595 | 20° C | 94% | 1014 hPa | 0 mm | - | - | - |
| 1777424995 | 20° C | 94% | 1015 hPa | 0 mm | - | - | - |
| 1777424425 | 20.56° C | 93% | 1015.5 hPa | 0 mm | - | - | - |
| 1777423824 | 20.56° C | 94% | 1015.5 hPa | 0 mm | - | - | - |
| 1777423224 | 20.56° C | 94% | 1014.9 hPa | 0 mm | - | - | - |
| 1777422594 | 21.11° C | 93% | 1014.9 hPa | 0 mm | - | - | - |
| 1777422023 | 21.11° C | 92% | 1015.4 hPa | 0 mm | - | - | - |
| 1777421393 | 21.11° C | 91% | 1015.3 hPa | 0 mm | - | - | - |
| 1777420823 | 21.67° C | 90% | 1014.7 hPa | 0 mm | - | - | - |
| 1777420223 | 21.67° C | 89% | 1014.4 hPa | 0 mm | - | - | - |
| 1777419623 | 22.22° C | 87% | 1014.2 hPa | 0 mm | - | - | - |
| 1777419022 | 22.78° C | 84% | 1014.1 hPa | 0 mm | - | - | - |
| 1777418421 | 23.33° C | 84% | 1014.6 hPa | 0 mm | - | - | - |
| 1777417822 | 23.33° C | 83% | 1014.1 hPa | 0 mm | - | - | - |
| 1777417221 | 23.33° C | 83% | 1013.8 hPa | 0 mm | - | - | - |
| 1777416621 | 23.33° C | 82% | 1013.1 hPa | 0 mm | - | - | - |
| 1777416020 | 23.89° C | 82% | 1013 hPa | 0 mm | - | - | - |
| 1777415420 | 23.89° C | 81% | 1012.9 hPa | 0 mm | - | - | - |
| 1777414820 | 24.44° C | 80% | 1012.6 hPa | 0 mm | - | - | - |
| 1777414220 | 24.44° C | 80% | 1012.1 hPa | 0 mm | - | - | - |
| 1777413619 | 25° C | 79% | 1011.9 hPa | 0 mm | - | - | - |
* Rain latest hour (hover to see other rain measurements)
** Current wind speed in m/s (hover to see current wind gust speed)